| time (UTC) | temp C | wind direction | speed KPH | gust KPH | rain 1hr cm | rain 24hr cm | rain mn cm | humidity % | barometer mb |
| 20260509164604 | 13 | 136 | 0.0 | 4.8 | 0.03 | 0.20 | 0.15 | 91 | 1012.7 |
| 20260509164105 | 13 | 140 | 3.2 | 8.0 | 0.03 | 0.20 | 0.15 | 91 | 1012.8 |
| 20260509163605 | 13 | 201 | 1.6 | 8.0 | 0.03 | 0.20 | 0.15 | 91 | 1013.0 |
| 20260509163105 | 13 | 201 | 4.8 | 9.7 | 0.03 | 0.20 | 0.15 | 91 | 1012.9 |
| 20260509162105 | 13 | 160 | 1.6 | 4.8 | 0.05 | 0.20 | 0.15 | 90 | 1012.9 |
| 20260509161604 | 13 | 138 | 1.6 | 4.8 | 0.05 | 0.20 | 0.15 | 90 | 1013.0 |
| 20260509161105 | 13 | 138 | 1.6 | 4.8 | 0.05 | 0.20 | 0.15 | 90 | 1013.2 |
| 20260509160604 | 12 | 138 | 0.0 | 1.6 | 0.05 | 0.20 | 0.15 | 90 | 1013.3 |
| 20260509160105 | 12 | 138 | 0.0 | 0.0 | 0.05 | 0.20 | 0.15 | 90 | 1013.4 |
| 20260509155105 | 12 | 138 | 1.6 | 3.2 | 0.03 | 0.18 | 0.13 | 90 | 1013.6 |
| 20260509154604 | 12 | 138 | 0.0 | 1.6 | 0.03 | 0.18 | 0.13 | 89 | 1013.7 |
| 20260509154105 | 12 | 138 | 0.0 | 4.8 | 0.03 | 0.18 | 0.13 | 90 | 1013.8 |
| 20260509153605 | 12 | 138 | 1.6 | 4.8 | 0.03 | 0.18 | 0.13 | 90 | 1013.8 |
| 20260509153105 | 12 | 141 | 0.0 | 1.6 | 0.03 | 0.18 | 0.13 | 89 | 1013.8 |
| 20260509152604 | 12 | 141 | 1.6 | 3.2 | 0.03 | 0.18 | 0.13 | 89 | 1014.0 |
| 20260509152106 | 12 | 141 | 1.6 | 4.8 | 0.00 | 0.15 | 0.10 | 89 | 1013.8 |
| 20260509151106 | 12 | 165 | 1.6 | 4.8 | 0.00 | 0.15 | 0.10 | 89 | 1013.8 |
| 20260509150605 | 12 | 161 | 1.6 | 4.8 | 0.00 | 0.15 | 0.10 | 89 | 1013.8 |
| 20260509150105 | 12 | 189 | 6.4 | 14.5 | 0.00 | 0.15 | 0.10 | 89 | 1013.6 |
| 20260509145606 | 12 | 144 | 3.2 | 11.3 | 0.00 | 0.15 | 0.10 | 89 | 1013.6 |
| 20260509144605 | 12 | 134 | 3.2 | 4.8 | 0.00 | 0.15 | 0.10 | 89 | 1013.6 |
| 20260509144106 | 12 | 134 | 0.0 | 4.8 | 0.00 | 0.15 | 0.10 | 89 | 1013.5 |
| 20260509142604 | 12 | 188 | 1.6 | 3.2 | 0.00 | 0.15 | 0.10 | 89 | 1013.5 |
| 20260509142104 | 12 | 188 | 3.2 | 8.0 | 0.00 | 0.15 | 0.10 | 90 | 1013.5 |
| 20260509141605 | 12 | 168 | 1.6 | 8.0 | 0.00 | 0.15 | 0.10 | 90 | 1013.5 |
| 20260509141104 | 12 | 195 | 1.6 | 9.7 | 0.00 | 0.15 | 0.10 | 90 | 1013.5 |
| 20260509140606 | 12 | 139 | 3.2 | 11.3 | 0.00 | 0.15 | 0.10 | 90 | 1013.6 |
| 20260509140105 | 11 | 201 | 6.4 | 11.3 | 0.00 | 0.15 | 0.10 | 90 | 1013.6 |
| 20260509135604 | 11 | 151 | 1.6 | 4.8 | 0.00 | 0.15 | 0.10 | 90 | 1013.6 |
| 20260509135104 | 11 | 180 | 3.2 | 4.8 | 0.00 | 0.15 | 0.10 | 91 | 1013.6 |
| 20260509134604 | 11 | 179 | 1.6 | 4.8 | 0.00 | 0.15 | 0.10 | 90 | 1013.8 |
| 20260509133604 | 11 | 179 | 3.2 | 4.8 | 0.00 | 0.15 | 0.10 | 90 | 1013.8 |
| 20260509133104 | 11 | 176 | 1.6 | 4.8 | 0.00 | 0.15 | 0.10 | 91 | 1013.7 |
| 20260509132604 | 11 | 176 | 0.0 | 1.6 | 0.00 | 0.15 | 0.10 | 91 | 1013.7 |
| 20260509132105 | 11 | 176 | 1.6 | 3.2 | 0.00 | 0.15 | 0.10 | 91 | 1013.8 |
| 20260509131604 | 11 | 176 | 1.6 | 3.2 | 0.00 | 0.15 | 0.10 | 92 | 1013.9 |
| 20260509131104 | 11 | 176 | 0.0 | 3.2 | 0.00 | 0.15 | 0.10 | 92 | 1014.0 |
| 20260509130604 | 10 | 181 | 0.0 | 4.8 | 0.00 | 0.15 | 0.10 | 92 | 1014.0 |
| 20260509130104 | 10 | 184 | 3.2 | 8.0 | 0.00 | 0.15 | 0.10 | 92 | 1014.1 |
| 20260509125605 | 10 | 126 | 0.0 | 0.0 | 0.00 | 0.15 | 0.10 | 92 | 1014.2 |
| 20260509124604 | 10 | 125 | 1.6 | 11.3 | 0.00 | 0.15 | 0.10 | 92 | 1014.0 |
| 20260509124104 | 10 | 90 | 1.6 | 4.8 | 0.00 | 0.15 | 0.10 | 92 | 1013.8 |
| 20260509123104 | 9 | 72 | 1.6 | 4.8 | 0.00 | 0.15 | 0.10 | 93 | 1013.7 |
| 20260509122605 | 9 | 67 | 3.2 | 8.0 | 0.00 | 0.15 | 0.10 | 93 | 1013.7 |
| 20260509122105 | 9 | 91 | 3.2 | 4.8 | 0.00 | 0.15 | 0.10 | 93 | 1013.8 |
| 20260509121604 | 8 | 92 | 1.6 | 4.8 | 0.00 | 0.15 | 0.10 | 92 | 1013.9 |
| 20260509121105 | 8 | 92 | 1.6 | 3.2 | 0.00 | 0.15 | 0.10 | 92 | 1014.0 |
| 20260509120604 | 8 | 92 | 0.0 | 3.2 | 0.00 | 0.15 | 0.10 | 93 | 1014.1 |
| 20260509120105 | 8 | 92 | 0.0 | 0.0 | 0.00 | 0.15 | 0.10 | 92 | 1014.3 |
| 20260509115604 | 8 | 92 | 0.0 | 1.6 | 0.00 | 0.15 | 0.10 | 92 | 1014.4 |
| 20260509115105 | 8 | 92 | 0.0 | 4.8 | 0.00 | 0.15 | 0.10 | 92 | 1014.4 |
| 20260509114604 | 8 | 92 | 3.2 | 4.8 | 0.00 | 0.15 | 0.10 | 92 | 1014.4 |
| 20260509114105 | 8 | 91 | 1.6 | 4.8 | 0.00 | 0.15 | 0.10 | 92 | 1014.3 |
| 20260509113604 | 8 | 91 | 0.0 | 3.2 | 0.00 | 0.15 | 0.10 | 92 | 1014.4 |
| 20260509113105 | 8 | 91 | 0.0 | 1.6 | 0.00 | 0.15 | 0.10 | 93 | 1014.4 |
| 20260509112606 | 8 | 91 | 0.0 | 1.6 | 0.00 | 0.15 | 0.10 | 93 | 1014.4 |
| 20260509112104 | 8 | 92 | 3.2 | 4.8 | 0.00 | 0.15 | 0.10 | 93 | 1014.4 |
| 20260509111104 | 8 | 92 | 0.0 | 3.2 | 0.00 | 0.15 | 0.10 | 92 | 1014.3 |
| 20260509110605 | 8 | 92 | 0.0 | 0.0 | 0.00 | 0.15 | 0.10 | 92 | 1014.2 |
| 20260509110104 | 8 | 92 | 0.0 | 0.0 | 0.00 | 0.15 | 0.10 | 93 | 1014.2 |
| 20260509105104 | 8 | 92 | 1.6 | 4.8 | 0.00 | 0.15 | 0.10 | 92 | 1014.2 |
| 20260509104605 | 8 | 92 | 1.6 | 4.8 | 0.00 | 0.15 | 0.10 | 93 | 1014.0 |
| 20260509104108 | 8 | 92 | 3.2 | 4.8 | 0.00 | 0.15 | 0.10 | 93 | 1014.1 |
| 20260509103605 | 8 | 92 | 0.0 | 3.2 | 0.00 | 0.15 | 0.10 | 92 | 1014.2 |
| 20260509103106 | 8 | 92 | 3.2 | 4.8 | 0.00 | 0.15 | 0.10 | 93 | 1014.2 |
| 20260509102606 | 8 | 99 | 1.6 | 8.0 | 0.00 | 0.15 | 0.10 | 92 | 1014.1 |
| 20260509101605 | 8 | 104 | 3.2 | 4.8 | 0.00 | 0.15 | 0.10 | 92 | 1014.2 |
| 20260509101104 | 8 | 113 | 0.0 | 8.0 | 0.00 | 0.15 | 0.10 | 93 | 1014.1 |
| 20260509100606 | 8 | 91 | 4.8 | 9.7 | 0.00 | 0.15 | 0.10 | 92 | 1014.2 |
| 20260509100104 | 8 | 125 | 1.6 | 8.0 | 0.00 | 0.15 | 0.10 | 92 | 1014.2 |
| 20260509095604 | 8 | 111 | 1.6 | 4.8 | 0.00 | 0.15 | 0.10 | 92 | 1014.3 |
| 20260509095104 | 8 | 111 | 1.6 | 4.8 | 0.00 | 0.15 | 0.10 | 92 | 1014.3 |
| 20260509094606 | 8 | 112 | 3.2 | 4.8 | 0.00 | 0.15 | 0.10 | 92 | 1014.4 |
| 20260509094104 | 8 | 113 | 3.2 | 8.0 | 0.00 | 0.15 | 0.10 | 92 | 1014.3 |
| 20260509093605 | 8 | 127 | 3.2 | 8.0 | 0.00 | 0.15 | 0.10 | 92 | 1014.2 |
| 20260509093104 | 8 | 127 | 3.2 | 4.8 | 0.00 | 0.15 | 0.10 | 92 | 1014.3 |
| 20260509092604 | 8 | 78 | 1.6 | 4.8 | 0.00 | 0.15 | 0.10 | 92 | 1014.2 |
| 20260509092104 | 8 | 76 | 0.0 | 0.0 | 0.00 | 0.15 | 0.10 | 92 | 1014.3 |
| 20260509091106 | 8 | 100 | 1.6 | 3.2 | 0.00 | 0.15 | 0.10 | 92 | 1014.4 |
| 20260509090106 | 9 | 99 | 3.2 | 4.8 | 0.00 | 0.15 | 0.10 | 92 | 1014.4 |
| 20260509085604 | 9 | 101 | 1.6 | 4.8 | 0.00 | 0.15 | 0.10 | 92 | 1014.4 |
| 20260509085104 | 9 | 98 | 1.6 | 3.2 | 0.03 | 0.15 | 0.10 | 92 | 1014.4 |
| 20260509084604 | 9 | 98 | 3.2 | 4.8 | 0.03 | 0.15 | 0.10 | 92 | 1014.4 |
| 20260509084104 | 9 | 95 | 0.0 | 3.2 | 0.03 | 0.15 | 0.10 | 92 | 1014.4 |
| 20260509083604 | 10 | 95 | 1.6 | 4.8 | 0.03 | 0.15 | 0.10 | 92 | 1014.4 |
| 20260509083104 | 10 | 95 | 0.0 | 0.0 | 0.03 | 0.15 | 0.10 | 92 | 1014.3 |
| 20260509082604 | 10 | 95 | 0.0 | 0.0 | 0.03 | 0.15 | 0.10 | 91 | 1014.4 |
| 20260509082105 | 10 | 95 | 1.6 | 3.2 | 0.05 | 0.15 | 0.10 | 91 | 1014.4 |
| 20260509081604 | 10 | 95 | 0.0 | 0.0 | 0.05 | 0.15 | 0.10 | 91 | 1014.3 |
| 20260509081104 | 10 | 95 | 0.0 | 0.0 | 0.05 | 0.15 | 0.10 | 91 | 1014.3 |
| 20260509080104 | 10 | 95 | 0.0 | 0.0 | 0.10 | 0.15 | 0.10 | 91 | 1014.2 |
| 20260509075105 | 10 | 95 | 0.0 | 0.0 | 0.08 | 0.13 | 0.08 | 90 | 1014.2 |
| 20260509072604 | 10 | 95 | 1.6 | 3.2 | 0.08 | 0.13 | 0.08 | 89 | 1013.9 |
| 20260509072105 | 10 | 95 | 3.2 | 4.8 | 0.05 | 0.10 | 0.05 | 89 | 1013.8 |
| 20260509071605 | 10 | 95 | 1.6 | 1.6 | 0.05 | 0.10 | 0.05 | 89 | 1013.9 |
| 20260509070604 | 10 | 95 | 0.0 | 0.0 | 0.00 | 0.05 | 0.00 | 88 | 1014.1 |
| 20260509070104 | 10 | 95 | 0.0 | 0.0 | 0.00 | 0.05 | 0.00 | 88 | 1014.1 |
| 20260509065604 | 10 | 95 | 0.0 | 0.0 | 0.00 | 0.05 | 0.00 | 88 | 1014.1 |
| 20260509065105 | 10 | 95 | 0.0 | 0.0 | 0.00 | 0.05 | 0.00 | 88 | 1014.0 |
| 20260509064604 | 10 | 95 | 0.0 | 0.0 | 0.00 | 0.05 | 0.00 | 88 | 1014.1 |
| 20260509064104 | 10 | 95 | 0.0 | 0.0 | 0.00 | 0.05 | 0.00 | 88 | 1014.2 |
| 20260509062106 | 10 | 97 | 0.0 | 3.2 | 0.00 | 0.05 | 0.00 | 88 | 1014.0 |
| 20260509061104 | 10 | 106 | 1.6 | 4.8 | 0.00 | 0.05 | 0.00 | 89 | 1014.1 |
| 20260509060605 | 10 | 105 | 0.0 | 3.2 | 0.00 | 0.05 | 0.00 | 89 | 1014.2 |
| 20260509060105 | 10 | 105 | 1.6 | 4.8 | 0.00 | 0.08 | 0.00 | 89 | 1014.1 |
| 20260509055605 | 10 | 120 | 1.6 | 4.8 | 0.00 | 0.08 | 0.00 | 90 | 1014.1 |
| 20260509055104 | 10 | 95 | 0.0 | 3.2 | 0.00 | 0.10 | 0.00 | 90 | 1014.1 |
| 20260509054605 | 10 | 95 | 0.0 | 1.6 | 0.00 | 0.10 | 0.00 | 90 | 1014.3 |
| 20260509054104 | 9 | 93 | 0.0 | 3.2 | 0.00 | 0.10 | 0.00 | 90 | 1014.4 |
| 20260509053604 | 9 | 92 | 0.0 | 3.2 | 0.00 | 0.13 | 0.00 | 90 | 1014.4 |
| 20260509053104 | 9 | 92 | 1.6 | 4.8 | 0.00 | 0.15 | 0.00 | 90 | 1014.5 |
| 20260509052605 | 9 | 308 | 0.0 | 0.0 | 0.00 | 0.15 | 0.00 | 90 | 1014.5 |
| 20260509052104 | 9 | 308 | 0.0 | 0.0 | 0.00 | 0.18 | 0.00 | 90 | 1014.5 |
| 20260509051105 | 9 | 308 | 0.0 | 0.0 | 0.00 | 0.18 | 0.00 | 89 | 1014.5 |
| 20260509050604 | 9 | 308 | 0.0 | 0.0 | 0.00 | 0.18 | 0.00 | 89 | 1014.5 |
| 20260509050104 | 9 | 308 | 0.0 | 0.0 | 0.00 | 0.20 | 0.00 | 89 | 1014.5 |
| 20260509045605 | 9 | 308 | 0.0 | 0.0 | 0.00 | 0.20 | 0.00 | 89 | 1014.6 |
| 20260509045104 | 9 | 308 | 0.0 | 0.0 | 0.00 | 0.20 | 0.00 | 88 | 1014.6 |
| 20260509044605 | 9 | 308 | 0.0 | 0.0 | 0.00 | 0.20 | 0.00 | 88 | 1014.6 |
| 20260509044104 | 9 | 308 | 0.0 | 0.0 | 0.00 | 0.20 | 0.00 | 88 | 1014.5 |
| 20260509043604 | 9 | 308 | 0.0 | 0.0 | 0.00 | 0.20 | 0.00 | 88 | 1014.5 |
| 20260509043105 | 9 | 308 | 0.0 | 0.0 | 0.00 | 0.20 | 0.00 | 88 | 1014.5 |
| 20260509042606 | 9 | 308 | 0.0 | 0.0 | 0.00 | 0.20 | 0.00 | 87 | 1014.5 |
| 20260509042104 | 10 | 308 | 0.0 | 0.0 | 0.00 | 0.20 | 0.00 | 87 | 1014.5 |
| 20260509041604 | 10 | 308 | 0.0 | 0.0 | 0.00 | 0.20 | 0.00 | 87 | 1014.5 |
| 20260509041104 | 10 | 308 | 0.0 | 0.0 | 0.00 | 0.20 | 0.00 | 86 | 1014.6 |
| 20260509040605 | 10 | 308 | 0.0 | 0.0 | 0.00 | 0.20 | 0.00 | 86 | 1014.6 |
| 20260509040104 | 10 | 308 | 0.0 | 0.0 | 0.00 | 0.20 | 0.00 | 86 | 1014.7 |
| 20260509035605 | 10 | 308 | 0.0 | 0.0 | 0.00 | 0.20 | 0.20 | 86 | 1014.6 |
| 20260509035106 | 10 | 308 | 0.0 | 0.0 | 0.00 | 0.20 | 0.20 | 86 | 1014.6 |
| 20260509034604 | 10 | 308 | 0.0 | 0.0 | 0.03 | 0.20 | 0.20 | 85 | 1014.6 |
| 20260509034105 | 10 | 308 | 0.0 | 0.0 | 0.03 | 0.20 | 0.20 | 85 | 1014.7 |
| 20260509033604 | 10 | 308 | 0.0 | 0.0 | 0.03 | 0.20 | 0.20 | 84 | 1014.7 |
| 20260509033104 | 10 | 308 | 0.0 | 0.0 | 0.03 | 0.20 | 0.20 | 84 | 1014.6 |
| 20260509032605 | 10 | 308 | 0.0 | 0.0 | 0.03 | 0.20 | 0.20 | 83 | 1014.6 |
| 20260509032105 | 11 | 308 | 0.0 | 0.0 | 0.03 | 0.20 | 0.20 | 82 | 1014.5 |
| 20260509031604 | 11 | 308 | 0.0 | 0.0 | 0.03 | 0.20 | 0.20 | 82 | 1014.6 |
| 20260509031104 | 11 | 308 | 0.0 | 0.0 | 0.03 | 0.20 | 0.20 | 81 | 1014.6 |
| 20260509030104 | 11 | 308 | 0.0 | 0.0 | 0.03 | 0.20 | 0.20 | 79 | 1014.4 |
| 20260509025604 | 11 | 308 | 0.0 | 0.0 | 0.03 | 0.20 | 0.20 | 78 | 1014.3 |
| 20260509025105 | 11 | 308 | 0.0 | 0.0 | 0.03 | 0.20 | 0.20 | 77 | 1014.3 |
| 20260509024604 | 11 | 308 | 0.0 | 0.0 | 0.00 | 0.18 | 0.18 | 76 | 1014.3 |
| 20260509024105 | 11 | 308 | 0.0 | 0.0 | 0.00 | 0.18 | 0.18 | 75 | 1014.3 |
| 20260509023604 | 11 | 308 | 0.0 | 0.0 | 0.00 | 0.18 | 0.18 | 75 | 1014.2 |
| 20260509023104 | 11 | 308 | 0.0 | 0.0 | 0.00 | 0.18 | 0.18 | 75 | 1014.2 |
| 20260509022605 | 11 | 308 | 0.0 | 0.0 | 0.00 | 0.18 | 0.18 | 74 | 1014.1 |
| 20260509021604 | 11 | 308 | 0.0 | 0.0 | 0.00 | 0.18 | 0.18 | 74 | 1014.1 |
| 20260509020604 | 11 | 308 | 0.0 | 0.0 | 0.00 | 0.18 | 0.18 | 73 | 1014.1 |
| 20260509020104 | 11 | 308 | 0.0 | 0.0 | 0.00 | 0.18 | 0.18 | 73 | 1014.1 |
| 20260509015605 | 11 | 308 | 0.0 | 0.0 | 0.00 | 0.18 | 0.18 | 73 | 1014.1 |
| 20260509015104 | 11 | 308 | 0.0 | 0.0 | 0.00 | 0.18 | 0.18 | 72 | 1014.0 |
| 20260509014604 | 11 | 308 | 0.0 | 0.0 | 0.00 | 0.18 | 0.18 | 72 | 1014.1 |
| 20260509014105 | 11 | 308 | 0.0 | 0.0 | 0.00 | 0.18 | 0.18 | 73 | 1014.0 |
| 20260509013604 | 11 | 308 | 0.0 | 0.0 | 0.00 | 0.18 | 0.18 | 73 | 1013.9 |
| 20260509012605 | 10 | 308 | 0.0 | 0.0 | 0.00 | 0.18 | 0.18 | 72 | 1013.9 |
| 20260509012104 | 10 | 308 | 0.0 | 0.0 | 0.00 | 0.18 | 0.18 | 72 | 1013.9 |
| 20260509011605 | 10 | 308 | 0.0 | 0.0 | 0.00 | 0.18 | 0.18 | 71 | 1013.9 |
| 20260509011104 | 10 | 308 | 0.0 | 0.0 | 0.00 | 0.18 | 0.18 | 70 | 1013.7 |
| 20260509010605 | 10 | 308 | 0.0 | 0.0 | 0.00 | 0.18 | 0.18 | 70 | 1013.7 |
| 20260509010104 | 11 | 308 | 0.0 | 1.6 | 0.00 | 0.18 | 0.18 | 69 | 1013.6 |
| 20260509005604 | 11 | 308 | 0.0 | 0.0 | 0.00 | 0.18 | 0.18 | 68 | 1013.5 |
| 20260509005104 | 11 | 308 | 0.0 | 0.0 | 0.00 | 0.18 | 0.18 | 66 | 1013.4 |
| 20260509004604 | 11 | 308 | 0.0 | 0.0 | 0.00 | 0.18 | 0.18 | 66 | 1013.3 |
| 20260509004104 | 11 | 308 | 0.0 | 0.0 | 0.00 | 0.18 | 0.18 | 64 | 1013.2 |
| 20260509003605 | 12 | 308 | 0.0 | 0.0 | 0.00 | 0.18 | 0.18 | 63 | 1013.2 |
| 20260509003104 | 12 | 308 | 0.0 | 0.0 | 0.00 | 0.18 | 0.18 | 62 | 1013.0 |
| 20260509002604 | 12 | 308 | 0.0 | 0.0 | 0.00 | 0.18 | 0.18 | 61 | 1013.0 |
| 20260509002105 | 12 | 308 | 0.0 | 0.0 | 0.00 | 0.18 | 0.18 | 60 | 1012.9 |
| 20260509001604 | 13 | 308 | 0.0 | 3.2 | 0.00 | 0.18 | 0.18 | 59 | 1012.8 |
| 20260509000605 | 13 | 308 | 0.0 | 0.0 | 0.00 | 0.18 | 0.18 | 57 | 1012.8 |
| 20260509000104 | 13 | 308 | 0.0 | 1.6 | 0.00 | 0.18 | 0.18 | 56 | 1012.8 |
| 20260508235604 | 13 | 308 | 0.0 | 1.6 | 0.00 | 0.18 | 0.18 | 55 | 1012.7 |
| 20260508235104 | 13 | 308 | 0.0 | 3.2 | 0.00 | 0.18 | 0.18 | 54 | 1012.7 |
| 20260508234604 | 14 | 308 | 1.6 | 4.8 | 0.00 | 0.18 | 0.18 | 53 | 1012.6 |
| 20260508234104 | 14 | 308 | 1.6 | 4.8 | 0.00 | 0.18 | 0.18 | 53 | 1012.5 |
| 20260508233604 | 14 | 315 | 0.0 | 4.8 | 0.00 | 0.18 | 0.18 | 53 | 1012.6 |
| 20260508232604 | 14 | 315 | 3.2 | 4.8 | 0.00 | 0.18 | 0.18 | 52 | 1012.6 |
| 20260508232105 | 14 | 315 | 1.6 | 4.8 | 0.00 | 0.18 | 0.18 | 53 | 1012.6 |
| 20260508231604 | 14 | 315 | 0.0 | 4.8 | 0.00 | 0.18 | 0.18 | 53 | 1012.5 |
| 20260508231105 | 15 | 315 | 0.0 | 3.2 | 0.00 | 0.18 | 0.18 | 53 | 1012.5 |
| 20260508230604 | 15 | 315 | 3.2 | 4.8 | 0.00 | 0.18 | 0.18 | 52 | 1012.6 |
| 20260508225604 | 15 | 315 | 0.0 | 4.8 | 0.00 | 0.18 | 0.18 | 51 | 1012.3 |
| 20260508225104 | 15 | 315 | 3.2 | 4.8 | 0.00 | 0.18 | 0.18 | 51 | 1012.2 |
| 20260508224605 | 15 | 329 | 1.6 | 4.8 | 0.00 | 0.18 | 0.18 | 50 | 1012.1 |
| 20260508224104 | 15 | 293 | 4.8 | 9.7 | 0.00 | 0.18 | 0.18 | 50 | 1012.2 |
| 20260508223605 | 15 | 350 | 1.6 | 4.8 | 0.00 | 0.18 | 0.18 | 50 | 1012.1 |
| 20260508223104 | 15 | 357 | 1.6 | 16.1 | 0.00 | 0.18 | 0.18 | 50 | 1012.2 |
| 20260508222604 | 15 | 335 | 4.8 | 9.7 | 0.00 | 0.18 | 0.18 | 50 | 1012.2 |
| 20260508222105 | 15 | 300 | 4.8 | 11.3 | 0.00 | 0.18 | 0.18 | 51 | 1012.1 |
| 20260508221604 | 15 | 310 | 3.2 | 12.9 | 0.00 | 0.18 | 0.18 | 51 | 1012.1 |
| 20260508221105 | 15 | 293 | 4.8 | 12.9 | 0.00 | 0.18 | 0.18 | 50 | 1012.0 |
| 20260508220604 | 15 | 306 | 3.2 | 11.3 | 0.00 | 0.18 | 0.18 | 51 | 1012.0 |
| 20260508220105 | 15 | 292 | 6.4 | 12.9 | 0.00 | 0.18 | 0.18 | 50 | 1012.1 |
| 20260508215104 | 16 | 290 | 8.0 | 16.1 | 0.00 | 0.18 | 0.18 | 48 | 1011.9 |
| 20260508214604 | 16 | 312 | 3.2 | 11.3 | 0.00 | 0.18 | 0.18 | 48 | 1011.9 |
| 20260508214104 | 16 | 9 | 3.2 | 9.7 | 0.00 | 0.18 | 0.18 | 48 | 1012.1 |
| 20260508213604 | 15 | 19 | 1.6 | 9.7 | 0.00 | 0.18 | 0.18 | 49 | 1012.1 |
| 20260508213105 | 15 | 297 | 4.8 | 12.9 | 0.00 | 0.18 | 0.18 | 51 | 1012.2 |
| 20260508212604 | 15 | 310 | 4.8 | 12.9 | 0.00 | 0.18 | 0.18 | 51 | 1012.2 |
| 20260508212104 | 15 | 339 | 4.8 | 12.9 | 0.00 | 0.18 | 0.18 | 50 | 1012.2 |
| 20260508211104 | 15 | 334 | 9.7 | 19.3 | 0.00 | 0.18 | 0.18 | 48 | 1012.2 |
| 20260508210604 | 15 | 295 | 6.4 | 14.5 | 0.00 | 0.18 | 0.18 | 49 | 1012.1 |
| 20260508210105 | 15 | 311 | 4.8 | 14.5 | 0.00 | 0.18 | 0.18 | 50 | 1012.3 |
| 20260508205605 | 15 | 319 | 4.8 | 19.3 | 0.00 | 0.18 | 0.18 | 51 | 1012.3 |
| 20260508205104 | 15 | 336 | 4.8 | 19.3 | 0.00 | 0.18 | 0.18 | 51 | 1012.3 |
| 20260508204605 | 15 | 347 | 3.2 | 14.5 | 0.00 | 0.18 | 0.18 | 52 | 1012.3 |
| 20260508204105 | 16 | 348 | 6.4 | 20.9 | 0.00 | 0.18 | 0.18 | 49 | 1012.2 |
| 20260508203605 | 16 | 328 | 9.7 | 20.9 | 0.00 | 0.18 | 0.18 | 53 | 1012.1 |
| 20260508203104 | 16 | 275 | 9.7 | 19.3 | 0.00 | 0.18 | 0.18 | 53 | 1012.1 |
| 20260508202604 | 16 | 325 | 9.7 | 20.9 | 0.00 | 0.18 | 0.18 | 54 | 1012.1 |
| 20260508202104 | 16 | 339 | 6.4 | 22.5 | 0.00 | 0.18 | 0.18 | 53 | 1012.2 |
| 20260508201605 | 16 | 303 | 11.3 | 32.2 | 0.00 | 0.18 | 0.18 | 53 | 1012.1 |
| 20260508201104 | 16 | 306 | 8.0 | 16.1 | 0.00 | 0.18 | 0.18 | 58 | 1012.1 |
| 20260508200604 | 15 | 311 | 8.0 | 16.1 | 0.00 | 0.18 | 0.18 | 59 | 1012.0 |
| 20260508200104 | 15 | 287 | 6.4 | 14.5 | 0.00 | 0.18 | 0.18 | 61 | 1011.9 |
| 20260508195604 | 14 | 281 | 11.3 | 19.3 | 0.00 | 0.18 | 0.18 | 59 | 1012.4 |
| 20260508194604 | 15 | 298 | 6.4 | 16.1 | 0.00 | 0.18 | 0.18 | 57 | 1012.3 |
| 20260508193605 | 15 | 313 | 9.7 | 20.9 | 0.00 | 0.18 | 0.18 | 57 | 1012.4 |
| 20260508193104 | 15 | 290 | 8.0 | 19.3 | 0.00 | 0.18 | 0.18 | 62 | 1012.6 |
| 20260508192604 | 15 | 273 | 8.0 | 19.3 | 0.00 | 0.18 | 0.18 | 62 | 1012.4 |
| 20260508192104 | 13 | 297 | 8.0 | 19.3 | 0.03 | 0.18 | 0.18 | 63 | 1012.7 |
| 20260508191605 | 13 | 305 | 0.0 | 4.8 | 0.03 | 0.18 | 0.18 | 64 | 1012.8 |
| 20260508191104 | 13 | 315 | 1.6 | 9.7 | 0.03 | 0.18 | 0.18 | 65 | 1012.8 |
| 20260508190604 | 13 | 295 | 3.2 | 12.9 | 0.03 | 0.18 | 0.18 | 65 | 1012.8 |
| 20260508185604 | 13 | 341 | 3.2 | 4.8 | 0.03 | 0.18 | 0.18 | 67 | 1012.9 |
| 20260508185104 | 13 | 295 | 4.8 | 12.9 | 0.03 | 0.18 | 0.18 | 67 | 1012.9 |
| 20260508184604 | 13 | 51 | 1.6 | 9.7 | 0.03 | 0.18 | 0.18 | 69 | 1012.8 |
| 20260508184104 | 12 | 351 | 1.6 | 4.8 | 0.03 | 0.18 | 0.18 | 73 | 1012.8 |
| 20260508183605 | 12 | 0 | 4.8 | 14.5 | 0.03 | 0.18 | 0.18 | 72 | 1012.9 |
| 20260508183104 | 12 | 49 | 6.4 | 16.1 | 0.03 | 0.18 | 0.18 | 69 | 1013.0 |
| 20260508182104 | 13 | 49 | 6.4 | 19.3 | 0.00 | 0.15 | 0.15 | 63 | 1013.0 |
| 20260508181605 | 13 | 346 | 6.4 | 16.1 | 0.00 | 0.15 | 0.15 | 60 | 1012.9 |
| 20260508181104 | 13 | 358 | 3.2 | 4.8 | 0.00 | 0.15 | 0.15 | 57 | 1012.8 |
| 20260508180604 | 13 | 327 | 3.2 | 9.7 | 0.00 | 0.15 | 0.15 | 58 | 1012.6 |
| 20260508175604 | 13 | 287 | 11.3 | 19.3 | 0.00 | 0.15 | 0.15 | 55 | 1012.4 |
| 20260508175104 | 14 | 311 | 8.0 | 19.3 | 0.00 | 0.15 | 0.15 | 55 | 1012.3 |
| 20260508174604 | 14 | 294 | 9.7 | 20.9 | 0.00 | 0.15 | 0.15 | 53 | 1012.3 |
| 20260508174106 | 15 | 246 | 4.8 | 19.3 | 0.00 | 0.15 | 0.15 | 54 | 1012.3 |
| 20260508173604 | 15 | 270 | 6.4 | 20.9 | 0.00 | 0.15 | 0.15 | 56 | 1012.4 |
| 20260508173104 | 15 | 287 | 8.0 | 16.1 | 0.00 | 0.15 | 0.15 | 57 | 1012.5 |
| 20260508172605 | 14 | 328 | 11.3 | 19.3 | 0.00 | 0.15 | 0.15 | 57 | 1012.6 |
| 20260508172104 | 13 | 295 | 8.0 | 19.3 | 0.00 | 0.15 | 0.15 | 57 | 1012.8 |
| 20260508171603 | 13 | 293 | 4.8 | 12.9 | 0.00 | 0.15 | 0.15 | 57 | 1012.9 |
| 20260508171104 | 13 | 323 | 4.8 | 16.1 | 0.00 | 0.15 | 0.15 | 56 | 1013.0 |
| 20260508170604 | 13 | 306 | 9.7 | 19.3 | 0.00 | 0.15 | 0.15 | 56 | 1012.9 |
| 20260508170104 | 13 | 292 | 4.8 | 19.3 | 0.00 | 0.15 | 0.15 | 57 | 1012.9 |
| 20260508165605 | 13 | 292 | 4.8 | 19.3 | 0.00 | 0.15 | 0.15 | 59 | 1013.0 |
| 20260508165104 | 13 | 309 | 4.8 | 19.3 | 0.00 | 0.15 | 0.15 | 59 | 1013.0 |